Time,TemperatureF,DewpointF,PressureIn,WindDirection,WindDirectionDegrees,WindSpeedMPH,WindSpeedGustMPH,Humidity,HourlyPrecipIn,Conditions,Clouds,dailyrainin,SoftwareType,DateUTC
2013-02-02 00:01:00,50.0,44.1,30.32,South,169,0.0,0.0,80,0.00,,,0.00,meteohub,2013-02-02 06:01:00,
2013-02-02 00:06:00,50.0,44.1,30.32,South,169,0.0,0.0,80,0.00,,,0.00,meteohub,2013-02-02 06:06:00,
2013-02-02 00:11:00,50.0,44.1,30.32,South,169,0.0,0.0,80,0.00,,,0.00,meteohub,2013-02-02 06:11:00,
2013-02-02 00:16:00,49.8,44.2,30.32,South,169,0.0,0.0,81,0.00,,,0.00,meteohub,2013-02-02 06:16:00,
2013-02-02 00:21:00,49.6,44.1,30.32,South,169,0.0,0.0,81,0.00,,,0.00,meteohub,2013-02-02 06:21:00,
2013-02-02 00:26:00,49.6,44.1,30.32,South,169,0.0,0.0,81,0.00,,,0.00,meteohub,2013-02-02 06:26:00,
2013-02-02 00:31:00,49.8,44.6,30.32,South,169,0.0,0.0,82,0.00,,,0.00,meteohub,2013-02-02 06:31:00,
2013-02-02 00:36:00,50.2,44.6,30.32,South,169,0.0,0.0,81,0.00,,,0.00,meteohub,2013-02-02 06:36:00,
2013-02-02 00:41:00,50.2,44.6,30.32,South,169,0.0,0.0,81,0.00,,,0.00,meteohub,2013-02-02 06:41:00,
2013-02-02 00:46:00,50.4,44.8,30.32,South,169,0.0,0.0,81,0.00,,,0.00,meteohub,2013-02-02 06:46:00,
2013-02-02 00:51:00,50.2,44.2,30.32,South,169,0.0,0.0,80,0.00,,,0.00,meteohub,2013-02-02 06:51:00,
2013-02-02 00:56:00,49.5,44.2,30.32,South,169,0.0,0.0,82,0.00,,,0.00,meteohub,2013-02-02 06:56:00,
2013-02-02 01:01:00,49.3,44.4,30.32,South,169,0.0,0.0,83,0.00,,,0.00,meteohub,2013-02-02 07:01:00,
2013-02-02 01:06:00,49.3,44.4,30.32,South,169,0.0,0.0,83,0.00,,,0.00,meteohub,2013-02-02 07:06:00,
2013-02-02 01:11:00,49.5,44.6,30.32,South,169,0.0,0.0,83,0.00,,,0.00,meteohub,2013-02-02 07:11:00,
2013-02-02 01:16:00,49.5,44.2,30.32,South,169,0.0,0.0,82,0.00,,,0.00,meteohub,2013-02-02 07:16:00,
2013-02-02 01:21:00,49.5,44.2,30.32,South,169,0.0,0.0,82,0.00,,,0.00,meteohub,2013-02-02 07:21:00,
2013-02-02 01:26:00,48.9,44.1,30.32,South,169,0.0,0.0,83,0.00,,,0.00,meteohub,2013-02-02 07:26:00,
2013-02-02 01:31:00,48.6,43.9,30.31,South,169,0.0,0.0,84,0.00,,,0.00,meteohub,2013-02-02 07:31:00,
2013-02-02 01:36:00,48.0,43.7,30.32,South,169,0.0,0.0,85,0.00,,,0.00,meteohub,2013-02-02 07:36:00,
2013-02-02 01:41:00,47.5,43.5,30.32,South,169,0.0,0.0,86,0.00,,,0.00,meteohub,2013-02-02 07:41:00,
2013-02-02 01:46:00,47.1,43.5,30.32,South,169,0.0,0.0,87,0.00,,,0.00,meteohub,2013-02-02 07:46:00,
2013-02-02 01:51:00,46.8,43.2,30.32,South,169,0.0,0.0,87,0.00,,,0.00,meteohub,2013-02-02 07:51:00,
2013-02-02 01:56:00,46.6,43.2,30.32,South,169,0.0,0.0,88,0.00,,,0.00,meteohub,2013-02-02 07:56:00,
2013-02-02 02:01:00,46.4,43.0,30.31,South,169,0.0,0.0,88,0.00,,,0.00,meteohub,2013-02-02 08:01:00,
2013-02-02 02:06:00,46.0,42.6,30.31,South,169,0.0,0.0,88,0.00,,,0.00,meteohub,2013-02-02 08:06:00,
2013-02-02 02:11:00,46.2,43.5,30.31,South,169,0.0,0.0,90,0.00,,,0.00,meteohub,2013-02-02 08:11:00,
2013-02-02 02:16:00,46.8,44.1,30.31,South,169,0.0,0.0,90,0.00,,,0.00,meteohub,2013-02-02 08:16:00,
2013-02-02 02:21:00,46.9,43.5,30.31,South,169,0.0,0.0,88,0.00,,,0.00,meteohub,2013-02-02 08:21:00,
2013-02-02 02:26:00,46.8,43.2,30.30,South,169,0.0,0.0,87,0.00,,,0.00,meteohub,2013-02-02 08:26:00,
2013-02-02 02:32:00,46.4,43.0,30.31,South,169,0.0,0.0,88,0.00,,,0.00,meteohub,2013-02-02 08:32:00,
2013-02-02 02:37:00,46.2,42.8,30.31,South,169,0.0,0.0,88,0.00,,,0.00,meteohub,2013-02-02 08:37:00,
2013-02-02 02:42:00,46.0,42.6,30.30,South,169,0.0,0.0,88,0.00,,,0.00,meteohub,2013-02-02 08:42:00,
2013-02-02 02:47:00,46.0,43.0,30.30,South,169,0.0,0.0,89,0.00,,,0.00,meteohub,2013-02-02 08:47:00,
2013-02-02 02:52:00,46.0,43.3,30.30,South,169,0.0,0.0,90,0.00,,,0.00,meteohub,2013-02-02 08:52:00,
2013-02-02 02:57:00,46.2,43.5,30.30,South,169,0.0,0.0,90,0.00,,,0.00,meteohub,2013-02-02 08:57:00,
2013-02-02 03:02:00,46.0,43.0,30.30,South,169,0.0,0.0,89,0.00,,,0.00,meteohub,2013-02-02 09:02:00,
2013-02-02 03:07:00,45.9,42.8,30.30,South,169,0.0,0.0,89,0.00,,,0.00,meteohub,2013-02-02 09:07:00,
2013-02-02 03:12:00,45.9,42.8,30.30,South,169,0.0,0.0,89,0.00,,,0.00,meteohub,2013-02-02 09:12:00,
2013-02-02 03:17:00,45.9,42.8,30.30,South,169,0.0,0.0,89,0.00,,,0.00,meteohub,2013-02-02 09:17:00,
2013-02-02 03:22:00,46.0,43.3,30.30,South,169,0.0,0.0,90,0.00,,,0.00,meteohub,2013-02-02 09:22:00,
2013-02-02 03:27:00,46.0,43.3,30.30,South,169,0.0,0.0,90,0.00,,,0.00,meteohub,2013-02-02 09:27:00,
2013-02-02 03:32:00,46.4,43.7,30.30,South,169,0.0,0.0,90,0.00,,,0.00,meteohub,2013-02-02 09:32:00,
2013-02-02 03:36:00,46.4,43.7,30.30,South,169,0.0,0.0,90,0.00,,,0.00,meteohub,2013-02-02 09:36:00,
2013-02-02 03:41:00,46.4,43.7,30.30,South,169,0.0,0.0,90,0.00,,,0.00,meteohub,2013-02-02 09:41:00,
2013-02-02 03:47:00,46.4,43.7,30.30,South,169,0.0,0.0,90,0.00,,,0.00,meteohub,2013-02-02 09:47:00,
2013-02-02 03:52:00,46.4,43.7,30.30,South,169,0.0,0.0,90,0.00,,,0.00,meteohub,2013-02-02 09:52:00,
2013-02-02 03:57:00,46.4,43.7,30.30,South,169,0.0,0.0,90,0.00,,,0.00,meteohub,2013-02-02 09:57:00,
2013-02-02 04:02:00,46.6,44.1,30.30,South,169,0.0,0.0,91,0.00,,,0.00,meteohub,2013-02-02 10:02:00,
2013-02-02 04:07:00,46.9,44.2,30.30,South,169,0.0,0.0,90,0.00,,,0.00,meteohub,2013-02-02 10:07:00,
2013-02-02 04:12:00,46.9,44.2,30.29,South,169,0.0,0.0,90,0.00,,,0.00,meteohub,2013-02-02 10:12:00,
2013-02-02 04:17:00,47.1,44.4,30.29,South,169,0.0,0.0,90,0.00,,,0.00,meteohub,2013-02-02 10:17:00,
2013-02-02 04:22:00,47.5,44.8,30.29,South,169,0.0,0.0,90,0.00,,,0.00,meteohub,2013-02-02 10:22:00,
2013-02-02 04:27:00,47.7,44.6,30.29,South,169,0.0,0.0,89,0.00,,,0.00,meteohub,2013-02-02 10:27:00,
2013-02-02 04:32:00,47.5,44.4,30.29,South,169,0.0,0.0,89,0.00,,,0.00,meteohub,2013-02-02 10:32:00,
2013-02-02 04:37:00,47.5,44.4,30.29,South,169,0.0,0.0,89,0.00,,,0.00,meteohub,2013-02-02 10:37:00,
2013-02-02 04:42:00,47.5,44.4,30.29,South,169,0.0,0.0,89,0.00,,,0.00,meteohub,2013-02-02 10:42:00,
2013-02-02 04:47:00,47.3,44.2,30.29,South,169,0.0,0.0,89,0.00,,,0.00,meteohub,2013-02-02 10:47:00,
2013-02-02 04:52:00,47.1,44.1,30.29,South,169,0.0,0.0,89,0.00,,,0.00,meteohub,2013-02-02 10:52:00,
2013-02-02 04:56:00,46.8,43.7,30.29,South,169,0.0,0.0,89,0.00,,,0.00,meteohub,2013-02-02 10:56:00,
2013-02-02 05:01:00,46.6,43.9,30.29,South,169,0.0,0.0,90,0.00,,,0.00,meteohub,2013-02-02 11:01:00,
2013-02-02 05:06:00,46.6,43.9,30.29,South,169,0.0,0.0,90,0.00,,,0.00,meteohub,2013-02-02 11:06:00,
2013-02-02 05:11:00,46.6,43.9,30.30,South,169,0.0,0.0,90,0.00,,,0.00,meteohub,2013-02-02 11:11:00,
2013-02-02 05:16:00,46.4,43.7,30.30,South,169,0.0,0.0,90,0.00,,,0.00,meteohub,2013-02-02 11:16:00,
2013-02-02 05:21:00,46.2,43.5,30.30,South,169,0.0,0.0,90,0.00,,,0.00,meteohub,2013-02-02 11:21:00,
2013-02-02 05:26:00,46.4,43.9,30.30,South,169,0.0,1.0,91,0.00,,,0.00,meteohub,2013-02-02 11:26:00,
2013-02-02 05:31:00,46.9,44.4,30.30,ENE,58,0.0,7.0,91,0.00,,,0.00,meteohub,2013-02-02 11:31:00,
2013-02-02 05:36:00,47.3,44.6,30.30,ENE,57,1.0,7.0,90,0.00,,,0.00,meteohub,2013-02-02 11:36:00,
2013-02-02 05:42:00,47.5,44.4,30.30,ENE,57,1.0,7.0,89,0.00,,,0.00,meteohub,2013-02-02 11:42:00,
2013-02-02 05:47:00,47.7,44.2,30.30,ENE,58,4.0,5.0,88,0.00,,,0.00,meteohub,2013-02-02 11:47:00,
2013-02-02 05:51:00,47.7,44.2,30.30,ENE,59,1.0,5.0,88,0.00,,,0.00,meteohub,2013-02-02 11:51:00,
2013-02-02 05:57:00,47.5,44.1,30.30,ENE,59,3.0,5.0,88,0.00,,,0.00,meteohub,2013-02-02 11:57:00,
2013-02-02 06:01:00,47.3,44.2,30.30,ENE,59,1.0,5.0,89,0.00,,,0.00,meteohub,2013-02-02 12:01:00,
2013-02-02 06:07:00,47.1,44.1,30.30,ENE,59,2.0,5.0,89,0.00,,,0.00,meteohub,2013-02-02 12:07:00,
2013-02-02 06:12:00,47.1,44.1,30.30,ENE,59,2.0,5.0,89,0.00,,,0.00,meteohub,2013-02-02 12:12:00,
2013-02-02 06:17:00,46.9,43.9,30.30,ENE,59,3.0,5.0,89,0.00,,,0.00,meteohub,2013-02-02 12:17:00,
2013-02-02 06:21:00,46.9,44.2,30.30,East,90,3.0,7.0,90,0.00,,,0.00,meteohub,2013-02-02 12:21:00,
2013-02-02 06:26:00,46.9,44.2,30.30,East,90,2.0,7.0,90,0.00,,,0.00,meteohub,2013-02-02 12:26:00,
2013-02-02 06:31:00,46.9,44.2,30.30,East,90,3.0,7.0,90,0.00,,,0.00,meteohub,2013-02-02 12:31:00,
2013-02-02 06:36:00,46.9,44.2,30.30,East,83,1.0,7.0,90,0.00,,,0.00,meteohub,2013-02-02 12:36:00,
2013-02-02 06:41:00,46.9,44.2,30.30,East,96,2.0,7.0,90,0.00,,,0.00,meteohub,2013-02-02 12:41:00,
2013-02-02 06:46:00,46.9,44.2,30.30,East,92,2.0,7.0,90,0.00,,,0.00,meteohub,2013-02-02 12:46:00,
2013-02-02 06:51:00,46.9,44.4,30.30,East,92,1.0,7.0,91,0.00,,,0.00,meteohub,2013-02-02 12:51:00,
2013-02-02 06:57:00,46.9,44.4,30.30,East,92,1.0,6.0,91,0.00,,,0.00,meteohub,2013-02-02 12:57:00,
2013-02-02 07:02:00,46.9,44.4,30.30,East,92,0.0,6.0,91,0.00,,,0.00,meteohub,2013-02-02 13:02:00,
2013-02-02 07:07:00,46.9,44.4,30.30,East,92,1.0,5.0,91,0.00,,,0.00,meteohub,2013-02-02 13:07:00,
2013-02-02 07:12:00,46.9,44.2,30.30,East,90,1.0,6.0,90,0.00,,,0.00,meteohub,2013-02-02 13:12:00,
2013-02-02 07:17:00,46.9,44.4,30.30,East,89,5.0,6.0,91,0.00,,,0.00,meteohub,2013-02-02 13:17:00,
2013-02-02 07:22:00,46.9,44.2,30.30,ESE,108,2.0,7.0,90,0.00,,,0.00,meteohub,2013-02-02 13:22:00,
2013-02-02 07:27:00,46.9,44.2,30.30,ESE,107,3.0,7.0,90,0.00,,,0.00,meteohub,2013-02-02 13:27:00,
2013-02-02 07:32:00,46.9,44.2,30.30,ESE,104,5.0,7.0,90,0.00,,,0.00,meteohub,2013-02-02 13:32:00,
2013-02-02 07:37:00,47.1,44.4,30.30,ESE,103,5.0,7.0,90,0.00,,,0.00,meteohub,2013-02-02 13:37:00,
2013-02-02 07:42:00,47.3,44.2,30.30,ESE,106,4.0,8.0,89,0.00,,,0.00,meteohub,2013-02-02 13:42:00,
2013-02-02 07:47:00,47.5,44.4,30.30,ESE,115,4.0,8.0,89,0.00,,,0.00,meteohub,2013-02-02 13:47:00,
2013-02-02 07:52:00,47.7,44.2,30.30,ESE,110,3.0,8.0,88,0.00,,,0.00,meteohub,2013-02-02 13:52:00,
2013-02-02 07:57:00,47.8,44.4,30.30,SE,144,4.0,8.0,88,0.00,,,0.00,meteohub,2013-02-02 13:57:00,
2013-02-02 08:02:00,48.0,44.6,30.30,East,99,2.0,7.0,88,0.00,,,0.00,meteohub,2013-02-02 14:02:00,
2013-02-02 08:07:00,48.4,45.0,30.30,ESE,120,2.0,7.0,88,0.00,,,0.00,meteohub,2013-02-02 14:07:00,
2013-02-02 08:12:00,48.7,45.0,30.30,ESE,111,5.0,7.0,87,0.00,,,0.00,meteohub,2013-02-02 14:12:00,
2013-02-02 08:17:00,48.9,45.1,30.30,ESE,110,3.0,7.0,87,0.00,,,0.00,meteohub,2013-02-02 14:17:00,
2013-02-02 08:22:00,49.3,45.3,30.30,ESE,111,3.0,7.0,86,0.00,,,0.00,meteohub,2013-02-02 14:22:00,
2013-02-02 08:27:00,49.5,45.5,30.30,ESE,109,7.0,8.0,86,0.00,,,0.00,meteohub,2013-02-02 14:27:00,
2013-02-02 08:32:00,49.8,45.9,30.30,ESE,115,4.0,8.0,86,0.00,,,0.00,meteohub,2013-02-02 14:32:00,
2013-02-02 08:37:00,50.4,46.4,30.30,SE,142,4.0,8.0,86,0.00,,,0.00,meteohub,2013-02-02 14:37:00,
2013-02-02 08:42:00,51.1,47.1,30.30,SE,132,3.0,8.0,86,0.00,,,0.00,meteohub,2013-02-02 14:42:00,
2013-02-02 08:47:00,51.4,46.8,30.31,ESE,119,5.0,7.0,84,0.00,,,0.00,meteohub,2013-02-02 14:47:00,
2013-02-02 08:52:00,52.0,47.3,30.31,ESE,118,3.0,8.0,84,0.00,,,0.00,meteohub,2013-02-02 14:52:00,
2013-02-02 08:57:00,52.3,47.3,30.31,ESE,119,2.0,8.0,83,0.00,,,0.00,meteohub,2013-02-02 14:57:00,
2013-02-02 09:02:00,52.5,47.1,30.31,ESE,109,4.0,8.0,82,0.00,,,0.00,meteohub,2013-02-02 15:02:00,
2013-02-02 09:07:00,52.9,47.5,30.31,SE,132,6.0,7.0,82,0.00,,,0.00,meteohub,2013-02-02 15:07:00,
2013-02-02 09:12:00,53.4,48.0,30.31,ESE,119,2.0,7.0,82,0.00,,,0.00,meteohub,2013-02-02 15:12:00,
2013-02-02 09:17:00,54.0,48.2,30.31,ESE,119,4.0,7.0,81,0.00,,,0.00,meteohub,2013-02-02 15:17:00,
2013-02-02 09:22:00,54.5,48.4,30.31,ESE,110,2.0,6.0,80,0.00,,,0.00,meteohub,2013-02-02 15:22:00,
2013-02-02 09:27:00,55.0,48.9,30.31,ESE,109,3.0,5.0,80,0.00,,,0.00,meteohub,2013-02-02 15:27:00,
2013-02-02 09:32:00,55.6,48.9,30.31,SE,136,5.0,7.0,78,0.00,,,0.00,meteohub,2013-02-02 15:32:00,
2013-02-02 09:37:00,55.9,49.5,30.31,SE,138,3.0,7.0,79,0.00,,,0.00,meteohub,2013-02-02 15:37:00,
2013-02-02 09:42:00,56.5,49.6,30.31,SSE,153,7.0,7.0,78,0.00,,,0.00,meteohub,2013-02-02 15:42:00,
2013-02-02 09:47:00,56.7,49.5,30.31,SE,143,6.0,8.0,77,0.00,,,0.00,meteohub,2013-02-02 15:47:00,
2013-02-02 09:52:00,57.0,49.8,30.31,SE,132,3.0,9.0,77,0.00,,,0.00,meteohub,2013-02-02 15:52:00,
2013-02-02 09:57:00,57.7,50.2,30.30,ESE,113,5.0,9.0,76,0.00,,,0.00,meteohub,2013-02-02 15:57:00,
2013-02-02 10:02:00,57.9,50.0,30.30,ESE,111,3.0,11.0,75,0.00,,,0.00,meteohub,2013-02-02 16:02:00,
2013-02-02 10:07:00,58.5,50.2,30.30,ESE,119,4.0,11.0,74,0.00,,,0.00,meteohub,2013-02-02 16:07:00,
2013-02-02 10:12:00,58.6,50.4,30.30,ESE,117,3.0,11.0,74,0.00,,,0.00,meteohub,2013-02-02 16:12:00,
2013-02-02 10:17:00,59.4,51.1,30.30,ESE,118,3.0,9.0,74,0.00,,,0.00,meteohub,2013-02-02 16:17:00,
2013-02-02 10:22:00,59.5,50.9,30.30,East,94,5.0,8.0,73,0.00,,,0.00,meteohub,2013-02-02 16:22:00,
2013-02-02 10:27:00,59.7,51.1,30.30,East,94,3.0,8.0,73,0.00,,,0.00,meteohub,2013-02-02 16:27:00,
2013-02-02 10:32:00,60.4,51.8,30.30,SSE,152,6.0,8.0,73,0.00,,,0.00,meteohub,2013-02-02 16:32:00,
2013-02-02 10:37:00,60.8,50.9,30.29,ESE,121,5.0,8.0,70,0.00,,,0.00,meteohub,2013-02-02 16:37:00,
2013-02-02 10:42:00,60.8,50.9,30.29,SE,145,4.0,8.0,70,0.00,,,0.00,meteohub,2013-02-02 16:42:00,
2013-02-02 10:47:00,61.2,50.9,30.29,SE,138,5.0,8.0,69,0.00,,,0.00,meteohub,2013-02-02 16:47:00,
2013-02-02 10:52:00,61.2,50.5,30.29,SE,132,5.0,9.0,68,0.00,,,0.00,meteohub,2013-02-02 16:52:00,
2013-02-02 10:57:00,61.7,51.1,30.29,SE,146,5.0,9.0,68,0.00,,,0.00,meteohub,2013-02-02 16:57:00,
2013-02-02 11:02:00,62.1,51.4,30.28,SSE,153,6.0,9.0,68,0.00,,,0.00,meteohub,2013-02-02 17:02:00,
2013-02-02 11:07:00,62.2,51.1,30.28,SE,130,6.0,9.0,67,0.00,,,0.00,meteohub,2013-02-02 17:07:00,
2013-02-02 11:12:00,62.1,51.4,30.28,SE,134,6.0,9.0,68,0.00,,,0.00,meteohub,2013-02-02 17:12:00,
2013-02-02 11:17:00,62.2,52.0,30.27,SE,139,6.0,9.0,69,0.00,,,0.00,meteohub,2013-02-02 17:17:00,
2013-02-02 11:22:00,62.8,52.0,30.27,SE,143,5.0,9.0,68,0.00,,,0.00,meteohub,2013-02-02 17:22:00,
2013-02-02 11:27:00,63.0,52.2,30.27,SSE,161,8.0,9.0,68,0.00,,,0.00,meteohub,2013-02-02 17:27:00,
2013-02-02 11:32:00,63.3,52.2,30.27,SE,144,4.0,10.0,67,0.00,,,0.00,meteohub,2013-02-02 17:32:00,
2013-02-02 11:37:00,63.7,52.5,30.27,South,178,4.0,10.0,67,0.00,,,0.00,meteohub,2013-02-02 17:37:00,
2013-02-02 11:42:00,63.7,52.2,30.27,SE,140,7.0,9.0,66,0.00,,,0.00,meteohub,2013-02-02 17:42:00,
2013-02-02 11:47:00,63.9,52.7,30.27,ESE,123,3.0,9.0,67,0.00,,,0.00,meteohub,2013-02-02 17:47:00,
2013-02-02 11:52:00,64.2,52.7,30.27,SE,128,5.0,9.0,66,0.00,,,0.00,meteohub,2013-02-02 17:52:00,
2013-02-02 11:57:00,64.8,52.7,30.26,SSE,149,5.0,9.0,65,0.00,,,0.00,meteohub,2013-02-02 17:57:00,
2013-02-02 12:02:00,64.9,52.9,30.26,SE,144,6.0,9.0,65,0.00,,,0.00,meteohub,2013-02-02 18:02:00,
2013-02-02 12:07:00,64.8,52.7,30.25,SSE,147,4.0,9.0,65,0.00,,,0.00,meteohub,2013-02-02 18:07:00,
2013-02-02 12:12:00,64.8,52.7,30.25,SE,146,8.0,9.0,65,0.00,,,0.00,meteohub,2013-02-02 18:12:00,
2013-02-02 12:17:00,64.6,52.5,30.25,SE,134,5.0,10.0,65,0.00,,,0.00,meteohub,2013-02-02 18:17:00,
2013-02-02 12:22:00,65.1,53.1,30.25,SE,145,5.0,11.0,65,0.00,,,0.00,meteohub,2013-02-02 18:22:00,
2013-02-02 12:28:00,65.7,53.2,30.24,SSE,157,1.0,11.0,64,0.00,,,0.00,meteohub,2013-02-02 18:28:00,
2013-02-02 12:33:00,66.4,53.8,30.24,SE,142,5.0,10.0,64,0.00,,,0.00,meteohub,2013-02-02 18:33:00,
2013-02-02 12:38:00,66.6,53.1,30.24,SE,142,9.0,9.0,62,0.00,,,0.00,meteohub,2013-02-02 18:38:00,
2013-02-02 12:43:00,66.6,53.6,30.23,SSE,157,5.0,10.0,63,0.00,,,0.00,meteohub,2013-02-02 18:43:00,
2013-02-02 12:48:00,66.7,52.9,30.23,SE,130,4.0,10.0,61,0.00,,,0.00,meteohub,2013-02-02 18:48:00,
2013-02-02 12:53:00,66.7,52.3,30.22,ESE,117,9.0,10.0,60,0.00,,,0.00,meteohub,2013-02-02 18:53:00,
2013-02-02 12:58:00,66.7,52.9,30.22,SSW,203,3.0,9.0,61,0.00,,,0.00,meteohub,2013-02-02 18:58:00,
2013-02-02 13:03:00,66.7,51.1,30.22,WSW,239,5.0,9.0,57,0.00,,,0.00,meteohub,2013-02-02 19:03:00,
2013-02-02 13:08:00,67.5,52.2,30.22,SW,225,2.0,9.0,58,0.00,,,0.00,meteohub,2013-02-02 19:08:00,
2013-02-02 13:13:00,68.2,52.3,30.21,SW,227,7.0,11.0,57,0.00,,,0.00,meteohub,2013-02-02 19:13:00,
2013-02-02 13:18:00,68.2,50.4,30.22,SW,232,6.0,11.0,53,0.00,,,0.00,meteohub,2013-02-02 19:18:00,
2013-02-02 13:23:00,68.2,50.9,30.21,SW,232,6.0,11.0,54,0.00,,,0.00,meteohub,2013-02-02 19:23:00,
2013-02-02 13:28:00,68.4,51.1,30.21,South,184,6.0,11.0,54,0.00,,,0.00,meteohub,2013-02-02 19:28:00,
2013-02-02 13:33:00,68.4,51.6,30.21,WSW,237,11.0,13.0,55,0.00,,,0.00,meteohub,2013-02-02 19:33:00,
2013-02-02 13:38:00,68.4,52.0,30.21,WSW,238,6.0,13.0,56,0.00,,,0.00,meteohub,2013-02-02 19:38:00,
2013-02-02 13:43:00,68.4,51.1,30.20,SSW,209,5.0,13.0,54,0.00,,,0.00,meteohub,2013-02-02 19:43:00,
2013-02-02 13:48:00,68.5,50.2,30.21,SW,214,6.0,11.0,52,0.00,,,0.00,meteohub,2013-02-02 19:48:00,
2013-02-02 13:53:00,68.2,50.4,30.21,SSW,194,6.0,10.0,53,0.00,,,0.00,meteohub,2013-02-02 19:53:00,
2013-02-02 13:58:00,68.0,50.7,30.20,SW,225,4.0,10.0,54,0.00,,,0.00,meteohub,2013-02-02 19:58:00,
2013-02-02 14:03:00,68.2,49.3,30.20,SW,229,7.0,10.0,51,0.00,,,0.00,meteohub,2013-02-02 20:03:00,
2013-02-02 14:08:00,68.4,48.4,30.20,SW,220,5.0,8.0,49,0.00,,,0.00,meteohub,2013-02-02 20:08:00,
2013-02-02 14:13:00,68.5,49.6,30.19,SW,225,3.0,12.0,51,0.00,,,0.00,meteohub,2013-02-02 20:13:00,
2013-02-02 14:18:00,68.5,51.8,30.19,West,281,8.0,12.0,55,0.00,,,0.00,meteohub,2013-02-02 20:18:00,
2013-02-02 14:23:00,68.9,50.0,30.19,West,277,1.0,12.0,51,0.00,,,0.00,meteohub,2013-02-02 20:23:00,
2013-02-02 14:28:00,69.4,50.0,30.19,West,279,1.0,9.0,50,0.00,,,0.00,meteohub,2013-02-02 20:28:00,
2013-02-02 14:33:00,69.4,51.1,30.19,West,274,6.0,9.0,52,0.00,,,0.00,meteohub,2013-02-02 20:33:00,
2013-02-02 14:38:00,69.4,50.5,30.19,West,269,4.0,8.0,51,0.00,,,0.00,meteohub,2013-02-02 20:38:00,
2013-02-02 14:43:00,69.4,50.5,30.19,SW,230,5.0,11.0,51,0.00,,,0.00,meteohub,2013-02-02 20:43:00,
2013-02-02 14:48:00,69.3,50.4,30.19,West,260,7.0,11.0,51,0.00,,,0.00,meteohub,2013-02-02 20:48:00,
2013-02-02 14:53:00,69.4,50.5,30.19,WSW,257,9.0,11.0,51,0.00,,,0.00,meteohub,2013-02-02 20:53:00,
2013-02-02 14:58:00,69.8,49.3,30.19,WNW,288,6.0,12.0,48,0.00,,,0.00,meteohub,2013-02-02 20:58:00,
2013-02-02 15:03:00,70.2,48.4,30.19,WSW,242,10.0,12.0,46,0.00,,,0.00,meteohub,2013-02-02 21:03:00,
2013-02-02 15:08:00,69.4,48.4,30.18,WSW,238,6.0,13.0,47,0.00,,,0.00,meteohub,2013-02-02 21:08:00,
2013-02-02 15:13:00,69.6,47.8,30.18,SW,215,7.0,13.0,46,0.00,,,0.00,meteohub,2013-02-02 21:13:00,
2013-02-02 15:18:00,70.0,48.2,30.18,SW,220,8.0,13.0,46,0.00,,,0.00,meteohub,2013-02-02 21:18:00,
2013-02-02 15:23:00,70.2,47.8,30.18,SW,228,3.0,11.0,45,0.00,,,0.00,meteohub,2013-02-02 21:23:00,
2013-02-02 15:28:00,70.3,48.6,30.18,SW,216,4.0,11.0,46,0.00,,,0.00,meteohub,2013-02-02 21:28:00,
2013-02-02 15:33:00,70.3,48.0,30.18,SW,232,3.0,9.0,45,0.00,,,0.00,meteohub,2013-02-02 21:33:00,
2013-02-02 15:38:00,70.5,48.2,30.18,WSW,240,5.0,8.0,45,0.00,,,0.00,meteohub,2013-02-02 21:38:00,
2013-02-02 15:43:00,70.5,47.5,30.18,SSW,198,6.0,8.0,44,0.00,,,0.00,meteohub,2013-02-02 21:43:00,
2013-02-02 15:48:00,70.5,48.2,30.18,SW,227,7.0,7.0,45,0.00,,,0.00,meteohub,2013-02-02 21:48:00,
2013-02-02 15:53:00,70.5,48.2,30.17,SW,219,6.0,9.0,45,0.00,,,0.00,meteohub,2013-02-02 21:53:00,
2013-02-02 15:58:00,70.3,47.5,30.17,SW,215,4.0,10.0,44,0.00,,,0.00,meteohub,2013-02-02 21:58:00,
2013-02-02 16:03:00,70.5,48.2,30.17,SW,223,6.0,11.0,45,0.00,,,0.00,meteohub,2013-02-02 22:03:00,
2013-02-02 16:08:00,70.3,48.0,30.17,SSW,204,6.0,11.0,45,0.00,,,0.00,meteohub,2013-02-02 22:08:00,
2013-02-02 16:13:00,70.2,47.8,30.17,SW,217,5.0,11.0,45,0.00,,,0.00,meteohub,2013-02-02 22:13:00,
2013-02-02 16:18:00,70.2,47.8,30.17,SW,217,0.0,10.0,45,0.00,,,0.00,meteohub,2013-02-02 22:18:00,
2013-02-02 16:23:00,70.3,48.6,30.17,SW,217,2.0,8.0,46,0.00,,,0.00,meteohub,2013-02-02 22:23:00,
2013-02-02 16:28:00,70.3,48.6,30.17,SSW,207,3.0,7.0,46,0.00,,,0.00,meteohub,2013-02-02 22:28:00,
2013-02-02 16:33:00,70.2,49.6,30.17,SSW,209,1.0,5.0,48,0.00,,,0.00,meteohub,2013-02-02 22:33:00,
2013-02-02 16:38:00,70.2,48.9,30.17,SSW,206,3.0,5.0,47,0.00,,,0.00,meteohub,2013-02-02 22:38:00,
2013-02-02 16:43:00,70.0,49.5,30.17,SSW,210,3.0,5.0,48,0.00,,,0.00,meteohub,2013-02-02 22:43:00,
2013-02-02 16:48:00,70.0,51.1,30.17,SSW,213,3.0,8.0,51,0.00,,,0.00,meteohub,2013-02-02 22:48:00,
2013-02-02 16:53:00,69.8,51.4,30.17,SSW,213,1.0,8.0,52,0.00,,,0.00,meteohub,2013-02-02 22:53:00,
2013-02-02 16:58:00,69.8,50.9,30.17,SSW,213,2.0,7.0,51,0.00,,,0.00,meteohub,2013-02-02 22:58:00,
2013-02-02 17:03:00,69.8,49.8,30.17,SSW,213,2.0,5.0,49,0.00,,,0.00,meteohub,2013-02-02 23:03:00,
2013-02-02 17:08:00,69.4,50.5,30.17,SSW,213,1.0,5.0,51,0.00,,,0.00,meteohub,2013-02-02 23:08:00,
2013-02-02 17:13:00,69.4,50.5,30.17,SSW,213,2.0,4.0,51,0.00,,,0.00,meteohub,2013-02-02 23:13:00,
2013-02-02 17:18:00,69.3,50.4,30.17,SSW,213,2.0,4.0,51,0.00,,,0.00,meteohub,2013-02-02 23:18:00,
2013-02-02 17:23:00,69.1,49.6,30.17,SSW,213,2.0,4.0,50,0.00,,,0.00,meteohub,2013-02-02 23:23:00,
2013-02-02 17:28:00,68.7,48.7,30.17,SSW,213,2.0,6.0,49,0.00,,,0.00,meteohub,2013-02-02 23:28:00,
2013-02-02 17:33:00,68.5,48.6,30.17,SSW,213,2.0,6.0,49,0.00,,,0.00,meteohub,2013-02-02 23:33:00,
2013-02-02 17:38:00,68.2,48.9,30.17,SW,215,4.0,6.0,50,0.00,,,0.00,meteohub,2013-02-02 23:38:00,
2013-02-02 17:43:00,67.8,49.1,30.17,SW,215,3.0,6.0,51,0.00,,,0.00,meteohub,2013-02-02 23:43:00,
2013-02-02 17:48:00,67.5,48.7,30.17,SW,215,2.0,6.0,51,0.00,,,0.00,meteohub,2013-02-02 23:48:00,
2013-02-02 17:53:00,67.5,48.7,30.17,SW,215,0.0,6.0,51,0.00,,,0.00,meteohub,2013-02-02 23:53:00,
2013-02-02 17:58:00,67.3,48.6,30.17,SW,215,0.0,5.0,51,0.00,,,0.00,meteohub,2013-02-02 23:58:00,
2013-02-02 18:03:00,66.9,48.7,30.17,SW,215,2.0,4.0,52,0.00,,,0.00,meteohub,2013-02-03 00:03:00,
2013-02-02 18:08:00,66.7,48.6,30.18,SW,215,1.0,3.0,52,0.00,,,0.00,meteohub,2013-02-03 00:08:00,
2013-02-02 18:13:00,66.4,48.7,30.18,SW,215,1.0,3.0,53,0.00,,,0.00,meteohub,2013-02-03 00:13:00,
2013-02-02 18:18:00,66.2,48.6,30.18,SW,215,0.0,3.0,53,0.00,,,0.00,meteohub,2013-02-03 00:18:00,
2013-02-02 18:23:00,65.8,48.7,30.18,SW,215,0.0,3.0,54,0.00,,,0.00,meteohub,2013-02-03 00:23:00,
2013-02-02 18:28:00,65.7,48.6,30.18,SW,215,1.0,3.0,54,0.00,,,0.00,meteohub,2013-02-03 00:28:00,
2013-02-02 18:33:00,65.5,48.9,30.19,SW,215,0.0,2.0,55,0.00,,,0.00,meteohub,2013-02-03 00:33:00,
2013-02-02 18:38:00,65.3,48.7,30.19,SW,215,0.0,2.0,55,0.00,,,0.00,meteohub,2013-02-03 00:38:00,
2013-02-02 18:43:00,64.9,48.9,30.19,SW,215,0.0,2.0,56,0.00,,,0.00,meteohub,2013-02-03 00:43:00,
2013-02-02 18:48:00,64.6,49.5,30.19,SW,215,0.0,2.0,58,0.00,,,0.00,meteohub,2013-02-03 00:48:00,
2013-02-02 18:53:00,64.0,48.9,30.20,SW,215,0.0,1.0,58,0.00,,,0.00,meteohub,2013-02-03 00:53:00,
2013-02-02 18:58:00,63.7,49.5,30.20,SW,215,0.0,1.0,60,0.00,,,0.00,meteohub,2013-02-03 00:58:00,
2013-02-02 19:04:00,63.1,49.1,30.20,SW,215,0.0,1.0,60,0.00,,,0.00,meteohub,2013-02-03 01:04:00,
2013-02-02 19:09:00,63.1,49.1,30.20,SW,215,0.0,1.0,60,0.00,,,0.00,meteohub,2013-02-03 01:09:00,
2013-02-02 19:14:00,63.0,48.9,30.20,SW,215,0.0,1.0,60,0.00,,,0.00,meteohub,2013-02-03 01:14:00,
2013-02-02 19:19:00,63.0,49.3,30.20,SW,215,0.0,1.0,61,0.00,,,0.00,meteohub,2013-02-03 01:19:00,
2013-02-02 19:24:00,62.8,49.1,30.20,SW,215,0.0,1.0,61,0.00,,,0.00,meteohub,2013-02-03 01:24:00,
2013-02-02 19:29:00,62.6,49.5,30.20,SW,215,2.0,2.0,62,0.00,,,0.00,meteohub,2013-02-03 01:29:00,
2013-02-02 19:34:00,62.6,49.8,30.20,SW,215,5.0,5.0,63,0.00,,,0.00,meteohub,2013-02-03 01:34:00,
2013-02-02 19:39:00,63.0,50.5,30.21,SW,215,4.0,6.0,64,0.00,,,0.00,meteohub,2013-02-03 01:39:00,
2013-02-02 19:44:00,63.0,50.5,30.21,SW,217,3.0,7.0,64,0.00,,,0.00,meteohub,2013-02-03 01:44:00,
2013-02-02 19:49:00,63.0,51.4,30.21,SW,217,5.0,7.0,66,0.00,,,0.00,meteohub,2013-02-03 01:49:00,
2013-02-02 19:54:00,63.0,51.8,30.21,SW,217,3.0,7.0,67,0.00,,,0.00,meteohub,2013-02-03 01:54:00,
2013-02-02 19:59:00,62.8,51.6,30.21,SW,217,2.0,6.0,67,0.00,,,0.00,meteohub,2013-02-03 01:59:00,
2013-02-02 20:04:00,62.4,51.8,30.21,SW,217,4.0,6.0,68,0.00,,,0.00,meteohub,2013-02-03 02:04:00,
2013-02-02 20:09:00,62.2,51.6,30.21,SW,217,3.0,6.0,68,0.00,,,0.00,meteohub,2013-02-03 02:09:00,
2013-02-02 20:14:00,61.9,51.3,30.21,SW,217,3.0,6.0,68,0.00,,,0.00,meteohub,2013-02-03 02:14:00,
2013-02-02 20:19:00,61.7,51.4,30.21,SW,217,1.0,4.0,69,0.00,,,0.00,meteohub,2013-02-03 02:19:00,
2013-02-02 20:24:00,61.3,51.4,30.22,SW,217,2.0,4.0,70,0.00,,,0.00,meteohub,2013-02-03 02:24:00,
2013-02-02 20:29:00,61.3,51.4,30.22,SW,217,4.0,4.0,70,0.00,,,0.00,meteohub,2013-02-03 02:29:00,
2013-02-02 20:34:00,61.2,51.6,30.21,SW,217,3.0,4.0,71,0.00,,,0.00,meteohub,2013-02-03 02:34:00,
2013-02-02 20:39:00,61.0,52.0,30.21,SW,217,2.0,6.0,72,0.00,,,0.00,meteohub,2013-02-03 02:39:00,
2013-02-02 20:44:00,61.0,52.3,30.21,SW,217,2.0,6.0,73,0.00,,,0.00,meteohub,2013-02-03 02:44:00,
2013-02-02 20:49:00,60.6,52.0,30.21,SW,217,2.0,5.0,73,0.00,,,0.00,meteohub,2013-02-03 02:49:00,
2013-02-02 20:54:00,60.4,52.2,30.21,SW,217,2.0,5.0,74,0.00,,,0.00,meteohub,2013-02-03 02:54:00,
2013-02-02 20:59:00,60.3,52.3,30.21,SW,217,3.0,5.0,75,0.00,,,0.00,meteohub,2013-02-03 02:59:00,
2013-02-02 21:04:00,60.3,52.7,30.21,SW,217,3.0,4.0,76,0.00,,,0.00,meteohub,2013-02-03 03:04:00,
2013-02-02 21:09:00,60.1,52.5,30.21,SW,217,3.0,5.0,76,0.00,,,0.00,meteohub,2013-02-03 03:09:00,
2013-02-02 21:14:00,59.9,52.7,30.21,SW,217,3.0,5.0,77,0.00,,,0.00,meteohub,2013-02-03 03:14:00,
2013-02-02 21:19:00,59.7,52.5,30.21,SW,217,3.0,5.0,77,0.00,,,0.00,meteohub,2013-02-03 03:19:00,
2013-02-02 21:24:00,59.7,52.5,30.21,SW,217,4.0,5.0,77,0.00,,,0.00,meteohub,2013-02-03 03:24:00,
2013-02-02 21:29:00,59.5,52.3,30.21,SW,217,3.0,6.0,77,0.00,,,0.00,meteohub,2013-02-03 03:29:00,
2013-02-02 21:34:00,59.5,52.7,30.22,SW,217,2.0,6.0,78,0.00,,,0.00,meteohub,2013-02-03 03:34:00,
2013-02-02 21:39:00,59.5,52.7,30.22,SW,217,3.0,6.0,78,0.00,,,0.00,meteohub,2013-02-03 03:39:00,
2013-02-02 21:44:00,59.4,52.9,30.22,SW,217,3.0,6.0,79,0.00,,,0.00,meteohub,2013-02-03 03:44:00,
2013-02-02 21:49:00,59.4,52.9,30.22,SW,217,5.0,6.0,79,0.00,,,0.00,meteohub,2013-02-03 03:49:00,
2013-02-02 21:54:00,59.4,53.2,30.22,SW,217,3.0,7.0,80,0.00,,,0.00,meteohub,2013-02-03 03:54:00,
2013-02-02 21:59:00,59.2,53.1,30.21,SW,217,4.0,7.0,80,0.00,,,0.00,meteohub,2013-02-03 03:59:00,
2013-02-02 22:04:00,59.2,53.4,30.21,SW,217,1.0,7.0,81,0.00,,,0.00,meteohub,2013-02-03 04:04:00,
2013-02-02 22:09:00,59.0,53.2,30.21,SW,217,2.0,6.0,81,0.00,,,0.00,meteohub,2013-02-03 04:09:00,
2013-02-02 22:14:00,58.8,53.4,30.22,SW,217,4.0,6.0,82,0.00,,,0.00,meteohub,2013-02-03 04:14:00,
2013-02-02 22:19:00,58.6,53.2,30.22,SW,217,2.0,6.0,82,0.00,,,0.00,meteohub,2013-02-03 04:19:00,
2013-02-02 22:24:00,58.5,53.1,30.21,SW,217,1.0,6.0,82,0.00,,,0.00,meteohub,2013-02-03 04:24:00,
2013-02-02 22:29:00,58.5,53.2,30.22,SW,217,3.0,5.0,83,0.00,,,0.00,meteohub,2013-02-03 04:29:00,
2013-02-02 22:34:00,58.3,53.4,30.22,SW,217,2.0,6.0,84,0.00,,,0.00,meteohub,2013-02-03 04:34:00,
2013-02-02 22:39:00,58.3,53.4,30.22,SW,217,3.0,6.0,84,0.00,,,0.00,meteohub,2013-02-03 04:39:00,
2013-02-02 22:44:00,58.3,53.4,30.22,SW,217,4.0,6.0,84,0.00,,,0.00,meteohub,2013-02-03 04:44:00,
2013-02-02 22:49:00,58.1,53.2,30.22,SW,217,2.0,5.0,84,0.00,,,0.00,meteohub,2013-02-03 04:49:00,
2013-02-02 22:54:00,57.9,53.4,30.22,SW,217,3.0,5.0,85,0.00,,,0.00,meteohub,2013-02-03 04:54:00,
2013-02-02 22:59:00,57.9,53.4,30.22,SW,217,2.0,5.0,85,0.00,,,0.00,meteohub,2013-02-03 04:59:00,
2013-02-02 23:01:00,57.9,53.4,30.22,SW,217,1.0,5.0,85,0.00,,,0.00,meteohub,2013-02-03 05:01:00,
2013-02-02 23:02:00,57.9,53.4,30.22,SW,217,3.0,5.0,85,0.00,,,0.00,meteohub,2013-02-03 05:02:00,
2013-02-02 23:07:00,57.7,53.2,30.22,SW,217,3.0,5.0,85,0.00,,,0.00,meteohub,2013-02-03 05:07:00,
2013-02-02 23:12:00,57.7,53.6,30.22,SW,217,2.0,5.0,86,0.00,,,0.00,meteohub,2013-02-03 05:12:00,
2013-02-02 23:17:00,57.6,53.4,30.22,SW,217,3.0,4.0,86,0.00,,,0.00,meteohub,2013-02-03 05:17:00,
2013-02-02 23:22:00,57.6,53.8,30.22,SW,217,3.0,5.0,87,0.00,,,0.00,meteohub,2013-02-03 05:22:00,
2013-02-02 23:27:00,57.4,53.6,30.22,SW,217,3.0,5.0,87,0.00,,,0.00,meteohub,2013-02-03 05:27:00,
2013-02-02 23:32:00,57.4,53.6,30.21,SW,217,1.0,6.0,87,0.00,,,0.00,meteohub,2013-02-03 05:32:00,
2013-02-02 23:37:00,57.4,53.8,30.21,SW,217,2.0,6.0,88,0.00,,,0.00,meteohub,2013-02-03 05:37:00,
2013-02-02 23:42:00,57.2,53.6,30.21,SW,217,2.0,6.0,88,0.00,,,0.00,meteohub,2013-02-03 05:42:00,
2013-02-02 23:47:00,57.4,53.8,30.22,SW,217,3.0,5.0,88,0.00,,,0.00,meteohub,2013-02-03 05:47:00,
2013-02-02 23:53:00,57.4,53.8,30.22,SW,217,3.0,5.0,88,0.00,,,0.00,meteohub,2013-02-03 05:53:00,
2013-02-02 23:58:00,57.2,53.6,30.22,SW,217,2.0,5.0,88,0.00,,,0.00,meteohub,2013-02-03 05:58:00,